FLX712 SBCJ-SBTE

Flight info

Callsign FLX712
Flight time 1h 13m
Altitude 39000
Route YTZ DCT KOGNI
Aircraft E190/M-SDE3GILORVW/S

Departure

Time 2026-05-05 13:00
Airport Carajás Airport (SBCJ)

Arrival

Time 2026-05-05 14:13
Airport Senador Petrônio Portela Airport (SBTE)
Time Latitude Longitude Altitude Speed Heading
2026-05-05 12:40 -6.11529 -50.00161 2046 ft 0 kts 31°
2026-05-05 12:55 -6.11526 -50.00158 2046 ft 1 kts 53°
2026-05-05 12:55 -6.11548 -50.00142 2045 ft 8 kts 199°
2026-05-05 12:55 -6.11600 -50.00184 2042 ft 11 kts 186°
2026-05-05 12:55 -6.11701 -50.00174 2038 ft 16 kts 174°
2026-05-05 12:56 -6.11776 -50.00235 2039 ft 15 kts 262°
2026-05-05 12:56 -6.11790 -50.00346 2040 ft 15 kts 264°
2026-05-05 12:56 -6.11802 -50.00455 2042 ft 15 kts 263°
2026-05-05 12:56 -6.11815 -50.00564 2044 ft 15 kts 263°
2026-05-05 12:57 -6.11828 -50.00672 2045 ft 15 kts 264°
2026-05-05 12:57 -6.11841 -50.00786 2045 ft 17 kts 263°
2026-05-05 12:57 -6.11856 -50.00908 2045 ft 18 kts 263°
2026-05-05 12:57 -6.11871 -50.01039 2044 ft 20 kts 263°
2026-05-05 12:58 -6.11888 -50.01138 2042 ft 13 kts 253°
2026-05-05 12:58 -6.11908 -50.01209 2038 ft 6 kts 261°
2026-05-05 12:58 -6.11893 -50.01219 2038 ft 3 kts 52°
2026-05-05 12:58 -6.11889 -50.01201 2039 ft 1 kts 85°
2026-05-05 12:59 -6.11877 -50.01090 2043 ft 52 kts 83°
2026-05-05 12:59 -6.11801 -50.00430 2044 ft 134 kts 82°
2026-05-05 12:59 -6.11670 -49.99450 2619 ft 151 kts 83°
2026-05-05 13:00 -6.11327 -49.96926 3326 ft 210 kts 84°
2026-05-05 13:00 -6.11165 -49.95443 4104 ft 220 kts 85°
2026-05-05 13:01 -6.10508 -49.91208 7342 ft 203 kts 78°
2026-05-05 13:01 -6.10182 -49.89827 8146 ft 210 kts 78°
2026-05-05 13:01 -6.09843 -49.88384 8950 ft 217 kts 77°
2026-05-05 13:01 -6.09494 -49.86894 9762 ft 224 kts 77°
2026-05-05 13:02 -6.09140 -49.85381 10602 ft 229 kts 77°
2026-05-05 13:02 -6.08780 -49.83843 11439 ft 233 kts 77°
2026-05-05 13:02 -6.08410 -49.82261 12264 ft 238 kts 76°
2026-05-05 13:02 -6.08033 -49.80648 13097 ft 242 kts 76°
2026-05-05 13:03 -6.07649 -49.79009 13950 ft 245 kts 76°
2026-05-05 13:03 -6.07263 -49.77359 14829 ft 246 kts 76°
2026-05-05 13:03 -6.06877 -49.75708 15687 ft 246 kts 76°
2026-05-05 13:03 -6.06490 -49.74055 16523 ft 245 kts 76°
2026-05-05 13:04 -6.06102 -49.72395 17302 ft 246 kts 76°
2026-05-05 13:04 -6.05712 -49.70729 18002 ft 250 kts 76°
2026-05-05 13:04 -6.05309 -49.69008 18628 ft 256 kts 76°
2026-05-05 13:04 -6.04902 -49.67269 19224 ft 262 kts 77°
2026-05-05 13:05 -6.04479 -49.65462 19845 ft 267 kts 76°
2026-05-05 13:05 -6.04054 -49.63647 20466 ft 271 kts 76°
2026-05-05 13:05 -6.03624 -49.61806 21077 ft 274 kts 76°
2026-05-05 13:05 -6.03185 -49.59934 21650 ft 279 kts 76°
2026-05-05 13:06 -6.02738 -49.58027 22206 ft 284 kts 77°
2026-05-05 13:06 -6.02283 -49.56085 22771 ft 287 kts 77°
2026-05-05 13:06 -6.01829 -49.54147 23363 ft 290 kts 77°
2026-05-05 13:06 -6.01365 -49.52169 23948 ft 292 kts 78°
2026-05-05 13:07 -6.00904 -49.50201 24520 ft 294 kts 78°
2026-05-05 13:07 -6.00432 -49.48187 25052 ft 297 kts 78°
2026-05-05 13:07 -5.99961 -49.46178 25569 ft 300 kts 78°
2026-05-05 13:07 -5.99484 -49.44144 26090 ft 302 kts 79°
2026-05-05 13:08 -5.99003 -49.42089 26596 ft 304 kts 79°
2026-05-05 13:08 -5.98517 -49.40022 27092 ft 307 kts 79°
2026-05-05 13:08 -5.98024 -49.37917 27583 ft 309 kts 79°
2026-05-05 13:08 -5.97535 -49.35836 28035 ft 312 kts 80°
2026-05-05 13:09 -5.97038 -49.33717 28479 ft 314 kts 80°
2026-05-05 13:09 -5.96535 -49.31575 28944 ft 317 kts 80°
2026-05-05 13:09 -5.96026 -49.29403 29397 ft 321 kts 79°
2026-05-05 13:09 -5.95512 -49.27215 29839 ft 324 kts 79°
2026-05-05 13:10 -5.94992 -49.25001 30264 ft 327 kts 79°
2026-05-05 13:10 -5.94475 -49.22800 30696 ft 330 kts 79°
2026-05-05 13:10 -5.93946 -49.20549 31137 ft 332 kts 79°
2026-05-05 13:10 -5.93409 -49.18267 31566 ft 335 kts 79°
2026-05-05 13:11 -5.92877 -49.16000 31975 ft 338 kts 79°
2026-05-05 13:11 -5.92335 -49.13696 32367 ft 341 kts 79°
2026-05-05 13:11 -5.91788 -49.11370 32766 ft 344 kts 79°
2026-05-05 13:11 -5.91243 -49.09052 33184 ft 346 kts 78°
2026-05-05 13:12 -5.90680 -49.06662 33622 ft 349 kts 78°
2026-05-05 13:12 -5.90125 -49.04298 34051 ft 351 kts 78°
2026-05-05 13:12 -5.89554 -49.01876 34473 ft 353 kts 78°
2026-05-05 13:12 -5.88985 -48.99459 34890 ft 355 kts 78°
2026-05-05 13:13 -5.88413 -48.97028 35286 ft 358 kts 78°
2026-05-05 13:13 -5.87842 -48.94604 35654 ft 360 kts 78°
2026-05-05 13:13 -5.87263 -48.92147 36024 ft 363 kts 78°
2026-05-05 13:13 -5.86679 -48.89668 36379 ft 366 kts 78°
2026-05-05 13:14 -5.86091 -48.87171 36731 ft 368 kts 78°
2026-05-05 13:14 -5.85505 -48.84684 37083 ft 371 kts 78°
2026-05-05 13:14 -5.84911 -48.82165 37419 ft 373 kts 78°
2026-05-05 13:14 -5.84305 -48.79592 37757 ft 376 kts 77°
2026-05-05 13:15 -5.83709 -48.77066 38080 ft 379 kts 77°
2026-05-05 13:15 -5.83097 -48.74473 38400 ft 381 kts 77°
2026-05-05 13:15 -5.82488 -48.71890 38716 ft 384 kts 77°
2026-05-05 13:15 -5.81876 -48.69299 39002 ft 383 kts 77°
2026-05-05 13:16 -5.80653 -48.64119 39027 ft 386 kts 77°
2026-05-05 13:16 -5.79413 -48.58867 39015 ft 388 kts 77°
2026-05-05 13:17 -5.78174 -48.53622 39017 ft 388 kts 77°
2026-05-05 13:17 -5.76928 -48.48350 39018 ft 389 kts 77°
2026-05-05 13:18 -5.75683 -48.43088 39013 ft 389 kts 77°
2026-05-05 13:18 -5.74429 -48.37785 39006 ft 389 kts 77°
2026-05-05 13:19 -5.73183 -48.32519 39004 ft 389 kts 77°
2026-05-05 13:19 -5.71932 -48.27237 39002 ft 389 kts 77°
2026-05-05 13:20 -5.70686 -48.21976 39007 ft 393 kts 77°
2026-05-05 13:20 -5.69390 -48.16510 39019 ft 411 kts 77°
2026-05-05 13:21 -5.68042 -48.10822 39030 ft 428 kts 77°
2026-05-05 13:21 -5.66642 -48.04919 39028 ft 445 kts 77°
2026-05-05 13:22 -5.65180 -47.98761 39033 ft 461 kts 77°
2026-05-05 13:22 -5.63680 -47.92442 39024 ft 467 kts 77°
2026-05-05 13:23 -5.62186 -47.86151 39024 ft 466 kts 77°
2026-05-05 13:23 -5.60687 -47.79846 39025 ft 466 kts 77°
2026-05-05 13:24 -5.59177 -47.73495 39022 ft 466 kts 77°
2026-05-05 13:24 -5.57676 -47.67189 39017 ft 467 kts 77°
2026-05-05 13:25 -5.56172 -47.60869 39012 ft 467 kts 77°
2026-05-05 13:25 -5.54671 -47.54567 39010 ft 468 kts 77°
2026-05-05 13:26 -5.53164 -47.48240 39006 ft 468 kts 77°
2026-05-05 13:26 -5.51633 -47.41902 39009 ft 468 kts 77°
2026-05-05 13:27 -5.50081 -47.35577 39007 ft 467 kts 77°
2026-05-05 13:27 -5.48527 -47.29245 39006 ft 468 kts 76°
2026-05-05 13:28 -5.46979 -47.22938 39009 ft 468 kts 76°
2026-05-05 13:28 -5.45424 -47.16605 39014 ft 468 kts 76°
2026-05-05 13:29 -5.43869 -47.10280 39022 ft 467 kts 76°
2026-05-05 13:29 -5.42319 -47.03972 39023 ft 468 kts 76°
2026-05-05 13:30 -5.40756 -46.97620 39020 ft 469 kts 77°
2026-05-05 13:30 -5.39196 -46.91278 39017 ft 468 kts 77°
2026-05-05 13:31 -5.37642 -46.84966 39014 ft 469 kts 76°
2026-05-05 13:31 -5.36089 -46.78659 39016 ft 468 kts 76°
2026-05-05 13:32 -5.34529 -46.72331 39020 ft 468 kts 76°
2026-05-05 13:32 -5.32960 -46.65965 39029 ft 469 kts 76°
2026-05-05 13:33 -5.31401 -46.59646 39032 ft 470 kts 77°
2026-05-05 13:33 -5.29838 -46.53310 39034 ft 468 kts 76°
2026-05-05 13:34 -5.28271 -46.46965 39036 ft 468 kts 76°
2026-05-05 13:34 -5.26713 -46.40655 39037 ft 467 kts 76°
2026-05-05 13:35 -5.25154 -46.34347 39035 ft 467 kts 76°
2026-05-05 13:35 -5.23593 -46.28031 39039 ft 468 kts 76°
2026-05-05 13:36 -5.22027 -46.21702 39033 ft 467 kts 76°
2026-05-05 13:36 -5.20465 -46.15386 39027 ft 468 kts 76°
2026-05-05 13:37 -5.18898 -46.09059 39023 ft 470 kts 76°
2026-05-05 13:37 -5.17320 -46.02685 39020 ft 470 kts 76°
2026-05-05 13:38 -5.15756 -45.96372 39014 ft 467 kts 76°
2026-05-05 13:38 -5.14288 -45.90052 39008 ft 467 kts 83°
2026-05-05 13:39 -5.13663 -45.83590 39016 ft 468 kts 85°
2026-05-05 13:39 -5.13058 -45.77111 39016 ft 467 kts 85°
2026-05-05 13:40 -5.12453 -45.70646 39016 ft 468 kts 85°
2026-05-05 13:40 -5.11843 -45.64143 39014 ft 467 kts 85°
2026-05-05 13:41 -5.11235 -45.57674 39012 ft 469 kts 85°
2026-05-05 13:41 -5.10623 -45.51154 39015 ft 469 kts 85°
2026-05-05 13:42 -5.10013 -45.44670 39012 ft 468 kts 85°
2026-05-05 13:42 -5.09405 -45.38220 39010 ft 468 kts 85°
2026-05-05 13:43 -5.08791 -45.31716 39000 ft 469 kts 85°
2026-05-05 13:43 -5.08178 -45.25219 39006 ft 468 kts 85°
2026-05-05 13:44 -5.07566 -45.18737 38998 ft 461 kts 85°
2026-05-05 13:44 -5.07271 -45.15628 38992 ft 449 kts 85°
2026-05-05 13:44 -5.06977 -45.12519 39003 ft 448 kts 85°
2026-05-05 13:45 -5.06386 -45.06271 38648 ft 454 kts 85°
2026-05-05 13:45 -5.06086 -45.03113 38178 ft 451 kts 85°
2026-05-05 13:45 -5.05790 -44.99992 37676 ft 450 kts 85°
2026-05-05 13:46 -5.05495 -44.96876 37181 ft 448 kts 85°
2026-05-05 13:46 -5.05203 -44.93799 36693 ft 449 kts 85°
2026-05-05 13:46 -5.04907 -44.90684 36196 ft 448 kts 85°
2026-05-05 13:46 -5.04614 -44.87603 35706 ft 448 kts 86°
2026-05-05 13:47 -5.04318 -44.84485 35208 ft 448 kts 85°
2026-05-05 13:47 -5.04023 -44.81382 34716 ft 449 kts 86°
2026-05-05 13:47 -5.03728 -44.78280 34222 ft 450 kts 85°
2026-05-05 13:47 -5.03431 -44.75164 33725 ft 450 kts 86°
2026-05-05 13:48 -5.03134 -44.72039 33226 ft 451 kts 85°
2026-05-05 13:48 -5.02837 -44.68934 32735 ft 452 kts 86°
2026-05-05 13:48 -5.02537 -44.65786 32252 ft 453 kts 86°
2026-05-05 13:48 -5.02238 -44.62646 31754 ft 454 kts 85°
2026-05-05 13:49 -5.01936 -44.59486 31251 ft 455 kts 85°
2026-05-05 13:49 -5.01638 -44.56361 30757 ft 455 kts 85°
2026-05-05 13:49 -5.01334 -44.53184 30251 ft 454 kts 86°
2026-05-05 13:49 -5.01038 -44.50083 29756 ft 450 kts 86°
2026-05-05 13:50 -5.00739 -44.46959 29262 ft 445 kts 86°
2026-05-05 13:50 -5.00446 -44.43900 28774 ft 441 kts 86°
2026-05-05 13:50 -5.00155 -44.40855 28301 ft 438 kts 86°
2026-05-05 13:50 -4.99864 -44.37820 27820 ft 435 kts 86°
2026-05-05 13:51 -4.99578 -44.34838 27345 ft 432 kts 86°
2026-05-05 13:51 -4.99291 -44.31837 26869 ft 429 kts 86°
2026-05-05 13:51 -4.99008 -44.28886 26400 ft 426 kts 86°
2026-05-05 13:51 -4.98725 -44.25938 25927 ft 423 kts 86°
2026-05-05 13:52 -4.98447 -44.23047 25465 ft 419 kts 85°
2026-05-05 13:52 -4.98170 -44.20159 25006 ft 415 kts 85°
2026-05-05 13:52 -4.97894 -44.17286 24546 ft 412 kts 85°
2026-05-05 13:52 -4.97620 -44.14440 24094 ft 409 kts 85°
2026-05-05 13:53 -4.97350 -44.11633 23646 ft 406 kts 85°
2026-05-05 13:53 -4.97082 -44.08847 23201 ft 402 kts 85°
2026-05-05 13:53 -4.96812 -44.06045 22754 ft 399 kts 85°
2026-05-05 13:53 -4.96548 -44.03304 22319 ft 396 kts 85°
2026-05-05 13:54 -4.96284 -44.00562 21890 ft 394 kts 85°
2026-05-05 13:54 -4.96024 -43.97863 21459 ft 391 kts 85°
2026-05-05 13:54 -4.95763 -43.95165 21029 ft 387 kts 85°
2026-05-05 13:54 -4.95504 -43.92472 20597 ft 384 kts 85°
2026-05-05 13:55 -4.95250 -43.89843 20175 ft 381 kts 85°
2026-05-05 13:55 -4.94996 -43.87210 19754 ft 378 kts 84°
2026-05-05 13:55 -4.94743 -43.84598 19341 ft 374 kts 84°
2026-05-05 13:55 -4.94494 -43.82020 18923 ft 371 kts 84°
2026-05-05 13:56 -4.94247 -43.79467 18518 ft 369 kts 84°
2026-05-05 13:56 -4.94000 -43.76912 18109 ft 366 kts 84°
2026-05-05 13:56 -4.93755 -43.74377 17710 ft 363 kts 84°
2026-05-05 13:56 -4.93513 -43.71873 17306 ft 361 kts 84°
2026-05-05 13:57 -4.93274 -43.69413 16911 ft 357 kts 84°
2026-05-05 13:57 -4.93033 -43.66922 16509 ft 355 kts 84°
2026-05-05 13:57 -4.92797 -43.64487 16124 ft 353 kts 84°
2026-05-05 13:57 -4.92559 -43.62037 15729 ft 349 kts 84°
2026-05-05 13:58 -4.92328 -43.59651 15348 ft 346 kts 84°
2026-05-05 13:58 -4.92093 -43.57231 14961 ft 345 kts 84°
2026-05-05 13:58 -4.91862 -43.54851 14576 ft 342 kts 84°
2026-05-05 13:58 -4.91635 -43.52514 14207 ft 340 kts 84°
2026-05-05 13:59 -4.91181 -43.47837 13457 ft 335 kts 84°
2026-05-05 13:59 -4.90954 -43.45507 13087 ft 333 kts 84°
2026-05-05 14:00 -4.90511 -43.40946 12361 ft 329 kts 84°
2026-05-05 14:00 -4.90290 -43.38683 12002 ft 327 kts 84°
2026-05-05 14:00 -4.90071 -43.36432 11640 ft 321 kts 84°
2026-05-05 14:00 -4.89855 -43.34209 11286 ft 313 kts 84°
2026-05-05 14:01 -4.89647 -43.32069 10946 ft 306 kts 84°
2026-05-05 14:01 -4.89445 -43.30005 10616 ft 298 kts 84°
2026-05-05 14:01 -4.89247 -43.27966 10288 ft 291 kts 84°
2026-05-05 14:01 -4.89053 -43.25974 9975 ft 283 kts 85°
2026-05-05 14:02 -4.88863 -43.24028 9666 ft 277 kts 84°
2026-05-05 14:02 -4.88677 -43.22123 9363 ft 275 kts 84°
2026-05-05 14:02 -4.88490 -43.20214 9064 ft 275 kts 85°
2026-05-05 14:02 -4.88305 -43.18320 8756 ft 273 kts 85°
2026-05-05 14:03 -4.88120 -43.16423 8447 ft 272 kts 85°
2026-05-05 14:03 -4.87938 -43.14560 8154 ft 267 kts 85°
2026-05-05 14:03 -4.87761 -43.12751 7857 ft 257 kts 85°
2026-05-05 14:03 -4.87588 -43.10979 7568 ft 249 kts 86°
2026-05-05 14:04 -4.87424 -43.09304 7300 ft 240 kts 86°
2026-05-05 14:04 -4.87263 -43.07659 7039 ft 233 kts 86°
2026-05-05 14:04 -4.87107 -43.06062 6785 ft 226 kts 86°
2026-05-05 14:04 -4.86957 -43.04533 6542 ft 219 kts 87°
2026-05-05 14:05 -4.86810 -43.03028 6307 ft 215 kts 87°
2026-05-05 14:05 -4.86664 -43.01536 6078 ft 215 kts 88°
2026-05-05 14:05 -4.86519 -43.00045 5844 ft 216 kts 87°
2026-05-05 14:05 -4.86372 -42.98543 5604 ft 215 kts 87°
2026-05-05 14:06 -4.86226 -42.97053 5366 ft 214 kts 87°
2026-05-05 14:06 -4.86081 -42.95575 5129 ft 213 kts 87°
2026-05-05 14:06 -4.85959 -42.94082 4889 ft 211 kts 96°
2026-05-05 14:06 -4.86239 -42.92693 4718 ft 200 kts 105°
2026-05-05 14:07 -4.86573 -42.91357 4511 ft 194 kts 105°
2026-05-05 14:07 -4.86897 -42.90064 4305 ft 188 kts 105°
2026-05-05 14:07 -4.87208 -42.88821 4169 ft 182 kts 105°
2026-05-05 14:07 -4.87517 -42.87587 4005 ft 183 kts 105°
2026-05-05 14:08 -4.87829 -42.86340 3761 ft 185 kts 104°
2026-05-05 14:08 -4.88175 -42.85116 3525 ft 184 kts 116°
2026-05-05 14:08 -4.89150 -42.84317 3304 ft 192 kts 158°
2026-05-05 14:08 -4.90467 -42.84084 3046 ft 189 kts 167°
2026-05-05 14:09 -4.91763 -42.83915 2775 ft 184 kts 167°
2026-05-05 14:09 -4.93022 -42.83764 2524 ft 178 kts 168°
2026-05-05 14:09 -4.94224 -42.83628 2328 ft 160 kts 168°
2026-05-05 14:09 -4.95265 -42.83516 2109 ft 144 kts 168°
2026-05-05 14:10 -4.96210 -42.83413 1905 ft 131 kts 168°
2026-05-05 14:10 -4.97101 -42.83317 1720 ft 125 kts 167°
2026-05-05 14:10 -4.97946 -42.83226 1541 ft 120 kts 167°
2026-05-05 14:10 -4.98779 -42.83136 1393 ft 122 kts 168°
2026-05-05 14:11 -4.99627 -42.83046 1260 ft 121 kts 169°
2026-05-05 14:11 -5.00465 -42.82957 1101 ft 121 kts 170°
2026-05-05 14:11 -5.01310 -42.82867 944 ft 122 kts 170°
2026-05-05 14:11 -5.02147 -42.82779 787 ft 121 kts 171°
2026-05-05 14:12 -5.02988 -42.82691 621 ft 120 kts 172°
2026-05-05 14:12 -5.03830 -42.82603 441 ft 121 kts 171°
2026-05-05 14:12 -5.04679 -42.82510 309 ft 122 kts 172°
2026-05-05 14:12 -5.05490 -42.82427 219 ft 108 kts 172°
2026-05-05 14:13 -5.06042 -42.82369 224 ft 47 kts 174°
2026-05-05 14:13 -5.06274 -42.82346 225 ft 25 kts 175°
2026-05-05 14:13 -5.06363 -42.82317 226 ft 9 kts 113°
2026-05-05 14:13 -5.06366 -42.82256 228 ft 7 kts 86°
2026-05-05 14:14 -5.06374 -42.82212 229 ft 5 kts 139°
2026-05-05 14:14 -5.06414 -42.82199 230 ft 6 kts 171°
2026-05-05 14:14 -5.06462 -42.82193 230 ft 7 kts 170°
2026-05-05 14:14 -5.06479 -42.82155 231 ft 5 kts 84°
2026-05-05 14:15 -5.06475 -42.82121 233 ft 4 kts 83°
2026-05-05 14:15 -5.06473 -42.82098 234 ft 2 kts 84°
2026-05-05 14:15 -5.06472 -42.82091 234 ft 0 kts 84°
2026-05-05 14:15 -5.06471 -42.82087 234 ft 0 kts 84°